Location: Luxembourg
(49.6117°N, 6.1300°E)
Time: 00:58:23
(UTC+02:00)

BlueWalker 3 - Visible Passes

Search period start: 11 October 2024 00:00
Search period end: 21 October 2024 00:00
Orbit: 472 x 485 km, 53.2° (Epoch: 10 October)

Date Brightness Start Highest point End Pass type
(mag) Time Alt. Az. Time Alt. Az. Time Alt. Az.
11 Oct 5.2 04:19:20 10° E 04:19:20 10° E 04:19:24 10° ENE visible
11 Oct 1.7 05:53:31 65° WNW 05:53:53 72° NNW 05:57:35 10° ENE visible
12 Oct 2.6 05:26:20 50° NE 05:26:20 50° NE 05:29:12 10° ENE visible
12 Oct 2.5 07:00:31 12° WNW 07:03:46 46° N 07:07:21 10° ENE visible
13 Oct 4.0 04:59:05 25° ENE 04:59:05 25° ENE 05:00:47 10° ENE visible
13 Oct 2.5 06:33:16 22° WNW 06:35:19 46° N 06:38:54 10° ENE visible
14 Oct 5.0 04:31:47 14° ENE 04:31:47 14° ENE 04:32:19 10° ENE visible
14 Oct 2.4 06:05:58 38° NW 06:06:50 46° N 06:10:25 10° ENE visible
15 Oct 2.6 05:38:38 45° NNE 05:38:38 45° NNE 05:41:54 10° ENE visible
15 Oct 2.1 07:12:56 10° WNW 07:16:38 64° NNE 07:20:18 10° E visible
16 Oct 3.7 05:11:17 29° NE 05:11:17 29° NE 05:13:21 10° ENE visible
16 Oct 2.1 06:45:28 18° WNW 06:48:05 61° NNE 06:51:45 10° E visible
17 Oct 4.8 04:43:56 16° ENE 04:43:56 16° ENE 04:44:46 10° ENE visible
17 Oct 2.2 06:18:06 33° NW 06:19:30 58° NNE 06:23:09 10° E visible
18 Oct 2.2 05:50:45 55° N 05:50:52 55° NNE 05:54:30 10° E visible
18 Oct 2.2 07:25:15 10° WNW 07:28:51 50° SSW 07:32:26 10° SE visible
19 Oct 3.3 05:23:24 35° ENE 05:23:24 35° ENE 05:25:50 10° E visible
19 Oct 2.0 06:57:35 17° WNW 07:00:14 56° SSW 07:03:51 10° SE visible
20 Oct 4.6 04:56:06 18° E 04:56:06 18° E 04:57:07 10° E visible
20 Oct 1.9 06:30:16 36° W 06:31:34 61° SSW 06:35:12 10° SE visible
